Location: ??????
(38.0131°N, 23.7723°E)
Time: 05:40:44
(UTC+00:00)

Cosmos 2322 Rocket - Pass Details

Date: 17 October 2021
Orbit: 832 x 851 km, 71.0° (Epoch: 28 November)

Event Time Altitude Azimuth Distance (km) Brightness Sun altitude
Rises 18:03:40 0° 203° (SSW) 3,362 5.5 -28.1°
Reaches altitude 10° 18:06:06 10° 204° (SSW) 2,431 4.7 -28.6°
Enters shadow 18:10:26 56° 213° (SSW) 986 2.5 -29.4°
